TimeCST,TemperatureF,Dew PointF,Humidity,Sea Level PressureIn,VisibilityMPH,Wind Direction,Wind SpeedMPH,Gust SpeedMPH,PrecipitationIn,Events,Conditions,WindDirDegrees,DateUTC
12:15 AM,36.9,28.9,73,30.29,10.0,Calm,Calm,-,N/A,,Clear,0,2013-03-03 06:15:00
12:35 AM,35.6,30.0,80,30.29,10.0,Calm,Calm,-,N/A,,Clear,0,2013-03-03 06:35:00
12:55 AM,34.9,30.2,83,30.29,10.0,Calm,Calm,-,N/A,,Clear,0,2013-03-03 06:55:00
1:15 AM,35.1,30.7,84,30.29,10.0,Calm,Calm,-,N/A,,Clear,0,2013-03-03 07:15:00
1:55 AM,35.2,30.7,84,30.28,10.0,Calm,Calm,-,N/A,,Clear,0,2013-03-03 07:55:00
2:15 AM,34.0,30.2,86,30.27,10.0,Calm,Calm,-,N/A,,Clear,0,2013-03-03 08:15:00
2:35 AM,33.8,30.2,87,30.27,10.0,West,3.5,-,N/A,,Clear,270,2013-03-03 08:35:00
2:55 AM,34.3,30.9,87,30.26,10.0,Calm,Calm,-,N/A,,Clear,0,2013-03-03 08:55:00
3:15 AM,34.0,30.7,88,30.25,10.0,Calm,Calm,-,N/A,,Clear,0,2013-03-03 09:15:00
3:35 AM,32.4,28.9,87,30.26,10.0,Calm,Calm,-,N/A,,Clear,0,2013-03-03 09:35:00
3:55 AM,32.4,30.2,92,30.26,10.0,Calm,Calm,-,N/A,,Clear,0,2013-03-03 09:55:00
4:15 AM,33.3,31.1,92,30.26,10.0,Calm,Calm,-,N/A,,Clear,0,2013-03-03 10:15:00
4:35 AM,33.4,30.7,90,30.26,10.0,Calm,Calm,-,N/A,,Clear,0,2013-03-03 10:35:00
5:15 AM,32.2,30.4,93,30.27,10.0,Calm,Calm,-,N/A,,Clear,0,2013-03-03 11:15:00
5:35 AM,32.4,29.7,90,30.28,10.0,Calm,Calm,-,N/A,,Clear,0,2013-03-03 11:35:00
6:50 AM,32.0,30.2,93,30.28,10.0,Calm,Calm,-,N/A,,Clear,0,2013-03-03 12:50:00
7:50 AM,37.4,32.0,81,30.30,10.0,Calm,Calm,-,N/A,,Clear,0,2013-03-03 13:50:00
8:50 AM,42.8,28.4,57,30.31,10.0,Calm,Calm,-,N/A,,Clear,0,2013-03-03 14:50:00
9:59 AM,50.0,26.6,40,30.30,10.0,West,4.6,-,N/A,,Clear,260,2013-03-03 15:59:00
10:54 AM,53.6,24.8,33,30.29,10.0,SW,4.6,-,N/A,,Clear,230,2013-03-03 16:54:00
11:58 AM,55.4,23.0,29,30.27,10.0,SSW,3.5,-,N/A,,Clear,210,2013-03-03 17:58:00
12:45 PM,57.2,21.2,25,30.23,10.0,SSW,6.9,-,N/A,,Clear,200,2013-03-03 18:45:00
1:45 PM,59.0,21.2,23,30.20,10.0,South,8.1,-,N/A,,Clear,190,2013-03-03 19:45:00
2:45 PM,60.8,21.2,22,30.18,10.0,South,8.1,-,N/A,,Clear,180,2013-03-03 20:45:00
3:50 PM,60.8,28.4,29,30.16,10.0,SSW,10.4,-,N/A,,Scattered Clouds,200,2013-03-03 21:50:00
4:50 PM,57.2,28.4,33,30.16,10.0,SSW,11.5,-,N/A,,Scattered Clouds,200,2013-03-03 22:50:00
5:45 PM,55.4,32.0,41,30.15,10.0,South,11.5,-,N/A,,Scattered Clouds,180,2013-03-03 23:45:00
6:50 PM,50.0,35.6,58,30.16,10.0,South,8.1,-,N/A,,Clear,180,2013-03-04 00:50:00
7:45 PM,44.6,37.4,76,30.15,10.0,SSE,6.9,-,N/A,,Clear,160,2013-03-04 01:45:00
8:50 PM,42.8,37.4,81,30.15,10.0,SSE,4.6,-,N/A,,Clear,160,2013-03-04 02:50:00
9:50 PM,42.8,39.2,87,30.13,10.0,SSE,8.1,-,N/A,,Clear,150,2013-03-04 03:50:00
10:15 PM,42.3,38.3,86,30.13,10.0,SSE,3.5,-,N/A,,Clear,160,2013-03-04 04:15:00
10:35 PM,41.2,37.8,88,30.12,10.0,SSE,5.8,-,N/A,,Clear,150,2013-03-04 04:35:00
10:55 PM,40.3,37.0,88,30.11,10.0,SSE,5.8,-,N/A,,Clear,150,2013-03-04 04:55:00
11:15 PM,41.2,38.3,89,30.10,10.0,SSE,4.6,-,N/A,,Clear,160,2013-03-04 05:15:00
11:35 PM,41.9,38.7,88,30.10,10.0,SSE,5.8,-,N/A,,Clear,150,2013-03-04 05:35:00
11:55 PM,41.9,38.8,89,30.09,10.0,SSE,4.6,-,N/A,,Clear,160,2013-03-04 05:55:00